Starlink 30758

operational
NORAD ID: 58133 Int'l Des: 2023-162 Owner: SPXS Country: US Constellation: starlink
LEOCIRCULAR

Starlink 30758について

説明を読み込み中...

リアルタイム位置

3D地球を読み込み中...

次回通過

高度履歴

Altitude vs Time

uPlot chart will show altitude changes over time

軌道要素

1 58133U 23162R 25258.58798355 -.00000208 00000-0 -33188-6 0 9997
2 58133 43.0047 4.2433 0001699 271.1318 88.9330 15.02535693105965
Epoch: Sep 15, 2025 • Age: 12 hours

現在のステータス

高度 560.1 km
速度 7.59 km/s
衛星直下点 26.97°N, 125.03°E
打ち上げ日 Oct 22, 2023
運用期間 1.9 years
タイプ internet

技術仕様

分類 Payload
質量 730.00 kg
乾燥質量 700.00 kg
総質量 730.00 kg
長さ 0.30 m
直径 4.10 m
スパン 29.00 m
形状 Box + pan
製造者 SPXS
バスタイプ Starlink V2M
フェーズステータス In Orbit
所有者/国 SPXS/US

大規模コンステレーション

Loading constellations...